Regional Weather Roundup
Issued by NWS

Home | Current Version | Previous Version | Graphics & Text | Print | Product List | Glossary On
Versions: 1 2 3 4 5 6 7 8 9 10 11 12 13 14 15 16 17 18 19 20 21 22 23 24 25 26 27 28 29 30 31 32 33 34 35 36 37 38 39 40 41 42 43 44 45 46 47 48 49 50
000
ASUS45 KCYS 230910
RWRWY

WYOMING REGIONAL WEATHER ROUNDUP
NATIONAL WEATHER SERVICE CHEYENNE WY
200 AM MST FRI FEB 23 2018

NOTE:  "FAIR" INDICATES FEW OR NO CLOUDS BELOW 12,000 FEET
WITH NO SIGNIFICANT WEATHER AND/OR OBSTRUCTIONS TO VISIBILITY.

WYZ001-231000-
YELLOWSTONE NATIONAL PARK

CITY           SKY/WX    TMP DP  RH WIND       PRES   REMARKS
LK YELLOWSTONE   N/A     -7 -10  87 CALM      29.90S
W YELLOWSTONE  NOT AVBL

$$
WYZ002>013-054>058-071-098>099-231000-
NORTHERN WYOMING

CITY           SKY/WX    TMP DP  RH WIND       PRES   REMARKS
JACKSON        FLURRIES   7   4  87 NE7       29.93F WCI  -5
CODY           FAIR      -5 -10  79 S5        30.04F WCI -16
GREYBULL       FAIR      -9 -12  87 SE5       30.13S WCI -20
WORLAND        FAIR      -5  -8  87 NW3       30.10F
SHERIDAN       FAIR      -6 -10  83 CALM      30.11S
BUFFALO        FAIR       5  -7  57 CALM      30.04F
GILLETTE       FAIR      -7 -10  87 SW3       30.08S
HULETT         FAIR       0  -6  78 MISG      30.09S
NEWCASTLE      FAIR       0  -6  78 NW3       30.08S

$$
WYZ014>020-022>026-101>103-231000-
CENTRAL WYOMING

CITY           SKY/WX    TMP DP  RH WIND       PRES   REMARKS
BIG PINEY      CLOUDY     2  -1  88 N8        29.93S WCI -12
PINEDALE       FLURRIES  -2  -6  84 NW5       29.92F WCI -12
DUBOIS           N/A    N/A N/A N/A MISG        N/A
LANDER         FAIR       3  -2  79 S3        29.99S
RIVERTON       FAIR       2  -7  66 CALM      30.00F
CASPER         FAIR     -11 -15  82 N3        30.03S
DOUGLAS        FAIR      -6 -11  79 CALM      30.07R

$$
WYZ021-027>030-104>119-231000-
SOUTHERN WYOMING

CITY           SKY/WX    TMP DP  RH WIND       PRES   REMARKS
EVANSTON       LGT SNOW   9   6  88 E12       29.86F FOG     WCI  -6
ROCK SPRINGS   FAIR       4  -1  80 CALM      29.92S
DIXON          FLURRIES  17  13  84 CALM      29.97S
RAWLINS        CLOUDY    11   8  88 CALM      29.94S
SARATOGA       PTSUNNY   12  10  92 CALM      29.93F
LARAMIE        CLOUDY    10   9  95 S10       29.92F WCI  -4
CHEYENNE       MOCLDY    13  10  88 W10       30.00R WCI   0
TORRINGTON     FAIR       9   6  88 CALM      30.07S
PINE BLUFFS    FAIR       5   3  92 CALM      30.05S

$$



USA.gov is the U.S. government's official web portal to all federal, state and local government web resources and services.